SCNT

Tte. Julio Gallardo Airport

Airport
ICAO code
SCNT
IATA Code
PNT
Summary
ICAO Region
CARSAM
ICAO Territory
Location

Puerto Natales, Magallanes y de la Antartica Chilena

Serving
Puerto Natales
Elevation
217 ft
Coordinates
51° 43' 60" S , 72° 31' 0" W
KCC
Metar
SCNT 222100Z 27021G31KT 9999 FEW040 SCT100 BKN200 08/M04 Q1001

Airport located 7 km north-northwest of Puerto Natales, Chile.

Climatology

Temperate oceanic climate (Köppen climate classification Cfb)

Runways

Designator Length Width Surface Rops
10/28 1764 30 ASP No/No

Airport map

Aerial View

SKYbrary Partners:

Safety knowledge contributed by: